Vorticity
nan nan nan nan nan nan nan nan nan nan nan nan nan nan nan nan nan nan nan nan nan nan nan nan nan nan nan nan nan nan nan nan nan nan nan nan nan nan nan nan nan nan nan nan nan nan nan nan nan nan nan nan nan nan nan nan nan nan nan nan nan nan nan nan nan nan nan nan nan
nan 4 5 5 4 5 7 8 8 7 7 8 9 10 9 10 10 9 8 8 8 9 9 10 12 12 13 13 12 11 11 11 10 9 9 9 8 8 8 9 10 10 10 10 8 7 9 9 7 7 8 9 10 10 9 10 10 10 10 9 8 9 9 8 9 9 7 6 nan
nan 5 5 5 4 3 4 6 7 8 6 6 8 10 9 9 10 10 10 9 9 9 8 10 13 14 13 11 10 11 11 11 10 8 8 9 10 9 8 9 10 10 10 10 9 8 10 9 7 7 8 10 10 9 7 8 9 9 8 6 7 8 9 9 8 7 6 7 nan
nan 6 6 7 6 3 1 4 7 8 7 7 8 9 9 8 9 10 10 10 9 9 9 10 11 13 13 12 11 10 11 12 11 9 8 9 10 10 10 9 10 10 10 10 10 10 10 8 5 8 10 11 8 6 7 9 9 8 8 7 8 9 9 9 8 7 8 8 nan
nan 6 6 8 9 5 4 5 7 6 6 7 8 7 7 8 8 9 9 9 10 9 10 10 9 11 12 13 12 11 11 11 10 9 9 9 10 11 11 11 10 10 11 11 11 10 9 5 4 8 11 9 7 8 10 11 9 7 7 8 9 10 10 9 8 8 9 9 nan
nan 8 6 7 9 7 6 8 8 6 6 8 8 6 4 5 7 8 8 8 9 11 12 9 8 10 12 13 12 11 10 10 10 9 10 10 10 12 12 12 11 11 11 12 12 10 7 3 3 8 10 8 8 11 13 10 7 7 8 8 9 10 11 10 9 10 11 12 nan
nan 9 8 8 8 7 7 7 8 7 7 9 10 7 4 4 6 7 7 7 9 11 11 10 10 10 11 12 10 10 10 10 10 11 10 10 11 13 12 13 13 12 12 12 10 7 5 3 4 8 9 8 9 11 11 8 8 8 8 8 8 10 11 9 8 11 13 13 nan
nan 11 10 10 9 8 8 7 6 6 6 7 11 10 7 6 6 6 6 6 8 9 10 11 12 11 10 9 10 10 10 9 9 10 10 11 12 12 12 13 13 12 11 10 9 7 4 3 6 8 8 7 9 12 12 10 9 9 8 7 7 9 10 10 10 12 14 11 nan
nan 12 12 11 10 10 10 9 7 6 5 6 9 10 9 8 8 6 5 6 8 9 9 11 13 12 10 9 9 9 9 10 9 9 9 11 12 11 10 11 12 11 9 9 10 8 3 3 7 9 8 9 12 13 13 11 9 8 6 5 8 9 11 11 13 13 12 9 nan
nan 10 11 12 12 11 11 10 9 9 7 7 8 9 9 9 8 7 5 6 9 10 9 11 12 12 11 9 9 9 9 10 10 10 9 11 12 10 8 9 11 9 8 8 9 7 3 4 8 9 9 12 14 13 12 10 8 6 4 6 11 11 10 10 12 11 10 9 nan
nan 7 9 11 12 11 11 10 10 10 9 9 9 9 9 9 8 6 5 7 10 11 9 11 12 11 9 9 9 9 9 9 11 11 10 11 12 10 9 9 10 9 7 6 6 5 4 7 10 10 9 11 13 12 11 10 8 7 6 10 13 11 8 8 9 8 9 10 nan
nan 7 8 10 12 12 11 9 9 10 10 10 9 9 9 10 9 8 7 8 9 8 9 12 12 10 8 8 10 10 10 10 10 11 11 11 11 10 9 9 10 9 8 6 4 4 6 10 11 11 9 8 8 10 12 10 7 7 8 10 10 9 8 7 6 7 9 10 nan
nan 7 7 9 11 11 11 8 8 10 11 10 9 8 9 10 12 11 10 9 7 7 9 12 12 10 9 9 10 10 11 11 11 10 11 11 11 10 9 9 10 8 7 5 5 5 8 11 12 10 8 6 7 11 13 10 6 7 8 8 8 7 8 7 6 7 10 10 nan
nan 8 7 8 9 9 10 8 8 10 12 11 9 9 9 11 12 12 12 10 8 8 9 10 10 11 12 11 10 11 10 11 11 10 10 10 10 10 9 10 10 8 6 6 8 8 8 11 11 10 8 7 8 10 11 8 7 8 8 8 7 7 8 7 7 8 9 9 nan
nan 9 8 8 7 7 8 8 8 10 12 12 10 10 9 10 12 12 12 11 10 9 9 9 9 11 13 13 12 11 10 11 11 10 9 9 10 10 9 10 10 7 6 7 8 9 10 11 10 10 9 8 9 9 9 8 8 8 9 9 8 8 8 8 8 8 8 8 nan
nan 10 9 8 7 6 6 6 6 10 12 12 11 10 9 9 11 13 13 11 9 10 11 10 9 10 12 13 13 12 10 10 11 10 9 9 9 10 9 9 9 8 7 7 8 8 10 10 10 11 10 9 9 9 9 8 8 9 9 9 9 9 9 9 8 8 8 8 nan
nan 10 10 9 8 6 5 4 4 7 10 12 11 11 9 8 10 12 13 11 9 11 12 11 9 10 11 12 12 12 11 11 11 10 10 10 10 10 9 9 9 8 8 8 8 9 9 9 10 11 11 11 10 10 9 8 8 9 10 10 10 11 11 9 8 8 8 9 nan
nan 11 11 11 10 8 7 5 5 6 9 11 11 10 10 9 9 10 12 12 11 11 11 10 9 10 11 11 10 11 12 12 11 10 10 11 11 10 9 8 9 9 9 9 9 9 9 9 10 10 11 11 11 11 10 9 9 10 10 10 11 11 11 10 9 8 9 10 nan
nan 12 12 12 11 10 10 8 7 7 9 10 10 11 11 10 9 9 10 11 12 12 11 9 9 11 12 11 9 9 10 13 13 11 10 11 11 11 10 9 9 9 9 10 10 10 10 10 10 10 10 10 11 11 10 10 10 10 10 10 11 11 11 10 9 9 10 11 nan
nan 13 13 13 12 12 12 11 10 9 8 10 12 12 11 11 10 10 10 10 12 12 11 9 9 10 12 12 11 9 8 12 15 12 10 11 11 11 10 10 9 9 9 10 11 10 10 10 10 10 10 10 10 10 9 9 9 10 10 10 11 11 11 10 9 10 11 11 nan
nan 13 13 14 14 13 13 12 12 11 9 10 12 12 11 11 11 11 10 11 12 12 11 10 10 10 11 11 10 8 6 11 15 12 10 11 12 11 10 10 9 9 9 10 11 11 11 10 10 10 10 10 10 9 8 8 9 9 8 9 11 12 11 10 10 10 10 11 nan
nan 13 14 15 15 14 14 13 13 12 11 10 11 12 12 11 11 11 11 12 12 11 11 11 11 11 11 10 9 7 6 9 13 13 12 11 12 11 10 10 11 10 10 10 11 11 10 10 10 10 10 10 11 10 9 8 8 8 8 10 11 11 10 10 10 10 10 10 nan
nan 13 14 15 16 15 14 14 13 13 12 11 11 12 12 11 11 11 11 11 11 10 9 12 13 13 12 11 10 9 7 9 12 13 13 12 12 11 10 11 12 10 8 8 9 10 9 9 9 10 10 11 12 10 9 8 8 8 8 9 9 9 8 9 9 10 10 10 nan
nan 12 12 14 15 15 14 14 13 13 12 11 11 11 11 11 11 11 11 11 11 10 9 10 13 14 13 12 11 11 10 11 11 11 12 12 11 11 9 10 10 9 6 9 13 12 8 7 9 9 10 11 11 9 8 8 8 9 9 8 7 7 7 8 9 9 10 9 nan
nan 12 12 12 14 15 14 13 13 12 12 12 12 12 12 11 11 11 11 11 11 11 10 10 12 12 12 12 12 11 12 12 11 10 10 10 10 9 8 8 9 8 9 17 22 15 8 5 6 8 9 10 10 9 9 9 10 9 9 8 7 6 7 7 8 9 9 8 nan
nan 13 13 13 12 14 14 13 13 13 12 13 13 12 12 11 11 11 11 11 11 11 11 11 10 11 11 11 11 10 9 10 12 11 10 10 9 7 6 6 7 9 15 25 24 15 8 6 5 4 5 8 9 8 8 9 11 11 10 9 8 7 7 6 7 7 7 8 nan
nan 14 14 14 14 14 13 13 13 13 13 13 14 13 11 11 11 13 12 11 11 11 10 10 10 9 9 11 12 9 6 9 11 11 10 10 9 7 4 4 6 11 22 29 22 13 8 7 5 1 -1 4 8 8 8 10 11 10 9 9 9 9 8 8 7 7 6 7 nan
nan 14 15 15 15 15 14 14 14 14 14 14 14 13 12 12 12 12 12 11 10 9 8 8 8 7 8 12 13 10 8 8 9 10 11 11 9 7 4 4 9 16 27 28 18 11 8 7 5 1 -3 -2 4 8 10 10 10 8 8 9 9 9 9 8 8 9 8 8 nan
nan 13 15 16 15 15 15 15 15 14 14 14 14 13 13 13 12 12 11 11 9 7 5 7 8 9 12 13 13 11 10 8 8 10 12 12 9 7 5 7 13 21 28 24 14 10 9 8 6 2 -2 -5 -2 6 10 10 10 9 8 9 10 10 10 9 10 11 10 9 nan
nan 14 15 16 15 14 15 15 15 15 14 14 15 14 13 12 12 12 11 10 7 5 6 10 12 13 13 12 11 10 9 8 9 12 13 12 8 7 6 8 13 21 29 23 12 10 9 8 7 4 1 -5 -4 3 9 11 10 9 9 10 12 12 11 11 11 11 10 9 nan
nan 14 15 15 15 14 14 15 16 15 14 14 15 13 12 12 11 10 10 7 6 8 10 13 14 12 10 10 10 10 9 9 10 12 13 12 8 7 8 10 13 19 28 23 12 10 10 9 7 5 2 -5 -6 2 9 12 10 10 10 13 14 12 10 10 11 11 10 10 nan
nan 14 15 15 14 14 14 15 15 15 14 14 13 12 12 10 9 10 10 10 9 10 11 13 13 10 8 9 10 10 9 9 10 11 12 11 10 9 10 11 12 18 27 23 12 11 10 9 8 6 3 -5 -6 3 9 11 9 9 11 13 13 11 9 9 11 12 11 9 nan
nan 14 15 15 14 14 15 15 14 14 13 13 12 12 11 9 9 11 11 10 11 11 11 11 10 8 8 8 9 9 8 8 10 11 11 11 11 11 9 7 12 20 28 22 12 11 10 9 8 6 3 -5 -7 2 8 8 7 8 11 12 13 12 10 9 10 11 10 9 nan
nan 14 15 15 15 14 15 14 14 13 13 12 12 11 11 10 10 10 9 9 9 11 11 12 10 9 9 8 9 11 9 8 11 11 11 11 12 11 7 4 12 25 30 21 11 10 10 9 8 6 1 -8 -8 3 9 8 7 9 11 12 11 11 10 10 10 10 10 8 nan
nan 13 14 15 15 15 15 14 13 13 13 12 11 11 10 11 10 8 8 8 9 11 11 11 11 11 10 11 13 14 12 10 11 12 11 11 11 10 7 5 15 27 28 19 11 10 10 9 8 4 -4 -11 -6 6 11 9 8 11 12 11 10 10 9 9 10 10 10 9 nan
nan 13 14 14 15 15 14 13 13 12 12 11 10 10 10 10 10 9 9 10 10 11 10 10 11 11 10 10 11 13 15 14 11 11 11 11 10 9 7 7 16 26 25 17 11 10 10 9 7 1 -9 -12 -1 8 10 8 9 12 12 11 10 9 8 8 9 10 10 10 nan
nan 14 14 14 14 14 13 13 12 12 11 11 10 10 10 9 8 8 10 11 11 11 9 8 10 10 10 9 8 10 14 15 12 11 10 10 9 8 7 8 15 22 24 18 12 11 10 9 5 -3 -12 -9 4 9 8 7 10 12 12 10 9 8 7 7 9 10 10 11 nan
nan 16 15 15 14 13 12 12 12 11 10 9 8 10 10 8 8 8 9 10 10 11 8 7 9 10 11 10 10 11 12 12 12 11 10 9 9 9 8 9 13 19 24 21 14 11 10 9 4 -5 -12 -5 7 7 6 8 11 12 11 9 8 8 7 7 9 11 12 15 nan
nan 17 16 15 14 13 12 12 11 11 10 8 9 10 9 7 8 9 9 9 10 10 9 8 9 9 11 10 11 13 13 12 12 11 10 10 10 11 10 9 12 17 24 23 16 12 10 9 4 -3 -11 -5 4 5 6 9 12 11 9 8 8 8 8 8 10 11 14 21 nan
nan 17 16 15 14 13 12 12 11 10 10 11 11 10 9 7 8 10 10 9 11 11 11 11 11 10 11 11 11 13 12 12 12 12 12 12 13 13 10 9 13 17 23 22 16 13 11 10 5 -3 -13 -8 3 5 7 10 12 10 8 8 8 7 7 8 9 11 13 20 nan
nan nan nan nan nan nan nan nan nan nan nan nan nan nan nan nan nan nan nan nan nan nan nan nan nan nan nan nan nan nan nan nan nan nan nan nan nan nan nan nan nan nan nan nan nan nan nan nan nan nan nan nan nan nan nan nan nan nan nan nan nan nan nan nan nan nan nan nan nan
CAPE
nan nan nan nan nan nan nan nan nan nan nan nan nan nan nan nan nan nan nan nan nan nan nan nan nan nan nan nan nan nan nan nan nan nan nan nan nan nan nan nan nan nan nan nan nan nan nan nan nan nan nan nan nan nan nan nan nan nan nan nan nan nan nan nan nan nan nan nan nan
nan nan nan nan nan nan nan nan nan nan nan nan nan nan nan nan nan nan nan nan nan nan nan nan nan nan nan nan nan nan nan nan nan nan nan nan nan nan nan nan nan nan nan nan nan nan nan nan nan nan nan nan nan nan nan nan nan nan nan nan nan nan nan nan nan nan nan nan nan
nan nan nan nan nan nan nan nan nan nan nan nan nan nan nan nan nan nan nan nan nan nan nan nan nan nan nan nan nan nan nan nan nan nan nan nan nan nan nan nan nan nan nan nan nan nan nan nan nan nan nan nan nan nan nan nan nan nan nan nan nan nan nan nan nan nan nan nan nan
nan nan nan nan nan nan nan nan nan nan nan nan nan nan nan nan nan nan nan nan nan nan nan nan nan nan nan nan nan nan nan nan nan nan nan nan nan nan nan nan nan nan nan nan nan nan nan nan nan nan nan nan nan nan nan nan nan nan nan nan nan nan nan nan nan nan nan nan nan
nan nan nan nan nan nan nan nan nan nan nan nan nan nan nan nan nan nan nan nan nan nan nan nan nan nan nan nan nan nan nan nan nan nan nan nan nan nan nan nan nan nan nan nan nan nan nan nan nan nan nan nan nan nan nan nan nan nan nan nan nan nan nan nan nan nan nan nan nan
nan nan nan nan nan nan nan nan nan nan nan nan nan nan nan nan nan nan nan nan nan nan nan nan nan nan nan nan nan nan nan nan nan nan nan nan nan nan nan nan nan nan nan nan nan nan nan nan nan nan nan nan nan nan nan nan nan nan nan nan nan nan nan nan nan nan nan nan nan
nan nan nan nan nan nan nan nan nan nan nan nan nan nan nan nan nan nan nan nan nan nan nan nan nan nan nan nan nan nan nan nan nan nan nan nan nan nan nan nan nan nan nan nan nan nan nan nan nan nan nan nan nan nan nan nan nan nan nan nan nan nan nan nan nan nan nan nan nan
nan nan nan nan nan nan nan nan nan nan nan nan nan nan nan nan nan nan nan nan nan nan nan nan nan nan nan nan nan nan nan nan nan nan nan nan nan nan nan nan nan nan nan nan nan nan nan nan nan nan nan nan nan nan nan nan nan nan nan nan nan nan nan nan nan nan nan nan nan
nan nan nan nan nan nan nan nan nan nan nan nan nan nan nan nan nan nan nan nan nan nan nan nan nan nan nan nan nan nan nan nan nan nan nan nan nan nan nan nan nan nan nan nan nan nan nan nan nan nan nan nan nan nan nan nan nan nan nan nan nan nan nan nan nan nan nan nan nan
nan nan nan nan nan nan nan nan nan nan nan nan nan nan nan nan nan nan nan nan nan nan nan nan nan nan nan nan nan nan nan nan nan nan nan nan nan nan nan nan nan nan nan nan nan nan nan nan nan nan nan nan nan nan nan nan nan nan nan nan nan nan nan nan nan nan nan nan nan
nan nan nan nan nan nan nan nan nan nan nan nan nan nan nan nan nan nan nan nan nan nan nan nan nan nan nan nan nan nan nan nan nan nan nan nan nan nan nan nan nan nan nan nan nan nan nan nan nan nan nan nan nan nan nan nan nan nan nan nan nan nan nan nan nan nan nan nan nan
nan nan nan nan nan nan nan nan nan nan nan nan nan nan nan nan nan nan nan nan nan nan nan nan nan nan nan nan nan nan nan nan nan nan nan nan nan nan nan nan nan nan nan nan nan nan nan nan nan nan nan nan nan nan nan nan nan nan nan nan nan nan nan nan nan nan nan nan nan
nan nan nan nan nan nan nan nan nan nan nan nan nan nan nan nan nan nan nan nan nan nan nan nan nan nan nan nan nan nan nan nan nan nan nan nan nan nan nan nan nan nan nan nan nan nan nan nan nan nan nan nan nan nan nan nan nan nan nan nan nan nan nan nan nan nan nan nan nan
nan nan nan nan nan nan nan nan nan nan nan nan nan nan nan nan nan nan nan nan nan nan nan nan nan nan nan nan nan nan nan nan nan nan nan nan nan nan nan nan nan nan nan nan nan nan nan nan nan nan nan nan nan nan nan nan nan nan nan nan nan nan nan nan nan nan nan nan nan
nan nan nan nan nan nan nan nan nan nan nan nan nan nan nan nan nan nan nan nan nan nan nan nan nan nan nan nan nan nan nan nan nan nan nan nan nan nan nan nan nan nan nan nan nan nan nan nan nan nan nan nan nan nan nan nan nan nan nan nan nan nan nan nan nan nan nan nan nan
nan nan nan nan nan nan nan nan nan nan nan nan nan nan nan nan nan nan nan nan nan nan nan nan nan nan nan nan nan nan nan nan nan nan nan nan nan nan nan nan nan nan nan nan nan nan nan nan nan nan nan nan nan nan nan nan nan nan nan nan nan nan nan nan nan nan nan nan nan
nan nan nan nan nan nan nan nan nan nan nan nan nan nan nan nan nan nan nan nan nan nan nan nan nan nan nan nan nan nan nan nan nan nan nan nan nan nan nan nan nan nan nan nan nan nan nan nan nan nan nan nan nan nan nan nan nan nan nan nan nan nan nan nan nan nan nan nan nan
nan nan nan nan nan nan nan nan nan nan nan nan nan nan nan nan nan nan nan nan nan nan nan nan nan nan nan nan nan nan nan nan nan nan nan nan nan nan nan nan nan nan nan nan nan nan nan nan nan nan nan nan nan nan nan nan nan nan nan nan nan nan nan nan nan nan nan nan nan
nan nan nan nan nan nan nan nan nan nan nan nan nan nan nan nan nan nan nan nan nan nan nan nan nan nan nan nan nan nan nan nan nan nan nan nan nan nan nan nan nan nan nan nan nan nan nan nan nan nan nan nan nan nan nan nan nan nan nan nan nan nan nan nan nan nan nan nan nan
nan nan nan nan nan nan nan nan nan nan nan nan nan nan nan nan nan nan nan nan nan nan nan nan nan nan nan nan nan nan nan nan nan nan nan nan nan nan nan nan nan nan nan nan nan nan nan nan nan nan nan nan nan nan nan nan nan nan nan nan nan nan nan nan nan nan nan nan nan
nan nan nan nan nan nan nan nan nan nan nan nan nan nan nan nan nan nan nan nan nan nan nan nan nan nan nan nan nan nan nan nan nan nan nan nan nan nan nan nan nan nan nan nan nan nan nan nan nan nan nan nan nan nan nan nan nan nan nan nan nan nan nan nan nan nan nan nan nan
nan nan nan nan nan nan nan nan nan nan nan nan nan nan nan nan nan nan nan nan nan nan nan nan nan nan nan nan nan nan nan nan nan nan nan nan nan nan nan nan nan nan nan nan nan nan nan nan nan nan nan nan nan nan nan nan nan nan nan nan nan nan nan nan nan nan nan nan nan
nan nan nan nan nan nan nan nan nan nan nan nan nan nan nan nan nan nan nan nan nan nan nan nan nan nan nan nan nan nan nan nan nan nan nan nan nan nan nan nan nan nan nan nan nan nan nan nan nan nan nan nan nan nan nan nan nan nan nan nan nan nan nan nan nan nan nan nan nan
nan nan nan nan nan nan nan nan nan nan nan nan nan nan nan nan nan nan nan nan nan nan nan nan nan nan nan nan nan nan nan nan nan nan nan nan nan nan nan nan nan nan nan nan nan nan nan nan nan nan nan nan nan nan nan nan nan nan nan nan nan nan nan nan nan nan nan nan nan
nan nan nan nan nan nan nan nan nan nan nan nan nan nan nan nan nan nan nan nan nan nan nan nan nan nan nan nan nan nan nan nan nan nan nan nan nan nan nan nan nan nan nan nan nan nan nan nan nan nan nan nan nan nan nan nan nan nan nan nan nan nan nan nan nan nan nan nan nan
nan nan nan nan nan nan nan nan nan nan nan nan nan nan nan nan nan nan nan nan nan nan nan nan nan nan nan nan nan nan nan nan nan nan nan nan nan nan nan nan nan nan nan nan nan nan nan nan nan nan nan nan nan nan nan nan nan nan nan nan nan nan nan nan nan nan nan nan nan
nan nan nan nan nan nan nan nan nan nan nan nan nan nan nan nan nan nan nan nan nan nan nan nan nan nan nan nan nan nan nan nan nan nan nan nan nan nan nan nan nan nan nan nan nan nan nan nan nan nan nan nan nan nan nan nan nan nan nan nan nan nan nan nan nan nan nan nan nan
nan nan nan nan nan nan nan nan nan nan nan nan nan nan nan nan nan nan nan nan nan nan nan nan nan nan nan nan nan nan nan nan nan nan nan nan nan nan nan nan nan nan nan nan nan nan nan nan nan nan nan nan nan nan nan nan nan nan nan nan nan nan nan nan nan nan nan nan nan
nan nan nan nan nan nan nan nan nan nan nan nan nan nan nan nan nan nan nan nan nan nan nan nan nan nan nan nan nan nan nan nan nan nan nan nan nan nan nan nan nan nan nan nan nan nan nan nan nan nan nan nan nan nan nan nan nan nan nan nan nan nan nan nan nan nan nan nan nan
nan nan nan nan nan nan nan nan nan nan nan nan nan nan nan nan nan nan nan nan nan nan nan nan nan nan nan nan nan nan nan nan nan nan nan nan nan nan nan nan nan nan nan nan nan nan nan nan nan nan nan nan nan nan nan nan nan nan nan nan nan nan nan nan nan nan nan nan nan
nan nan nan nan nan nan nan nan nan nan nan nan nan nan nan nan nan nan nan nan nan nan nan nan nan nan nan nan nan nan nan nan nan nan nan nan nan nan nan nan nan nan nan nan nan nan nan nan nan nan nan nan nan nan nan nan nan nan nan nan nan nan nan nan nan nan nan nan nan
nan nan nan nan nan nan nan nan nan nan nan nan nan nan nan nan nan nan nan nan nan nan nan nan nan nan nan nan nan nan nan nan nan nan nan nan nan nan nan nan nan nan nan nan nan nan nan nan nan nan nan nan nan nan nan nan nan nan nan nan nan nan nan nan nan nan nan nan nan
nan nan nan nan nan nan nan nan nan nan nan nan nan nan nan nan nan nan nan nan nan nan nan nan nan nan nan nan nan nan nan nan nan nan nan nan nan nan nan nan nan nan nan 0 0 0 0 nan nan nan nan nan nan nan nan nan nan nan nan nan nan nan nan nan nan nan nan nan nan
nan nan nan nan nan nan nan nan nan nan nan nan nan nan nan nan nan nan nan nan nan nan nan nan nan nan nan nan nan nan nan nan nan nan nan nan nan nan nan nan nan nan nan 1 1 1 0 nan nan nan nan nan nan nan nan nan nan nan nan nan nan nan nan nan nan nan nan nan nan
nan nan nan nan nan nan nan nan nan nan nan nan nan nan nan nan nan nan nan nan nan nan nan nan nan nan nan nan nan nan nan nan nan nan nan nan nan nan nan nan nan nan nan 1 1 1 1 nan nan nan nan nan nan nan nan nan nan nan nan nan nan nan nan nan nan nan nan nan nan
nan nan nan nan nan nan nan nan nan nan nan nan nan nan nan nan nan nan nan nan nan nan nan nan nan nan nan nan nan nan nan nan nan nan nan nan nan nan nan nan nan nan nan 1 1 1 1 0 nan nan nan nan nan nan nan nan nan nan nan nan nan nan nan nan nan nan nan nan nan
nan nan nan nan nan nan nan nan nan nan nan nan nan nan nan nan nan nan nan nan nan nan nan nan nan nan nan nan nan nan nan nan nan nan nan nan nan nan nan nan nan nan nan 1 1 1 1 0 nan nan nan nan nan nan nan nan nan nan nan nan nan nan nan nan nan nan nan nan nan
nan nan nan nan nan nan nan nan nan nan nan nan nan nan nan nan nan nan nan nan nan nan nan nan nan nan nan nan nan nan nan nan nan nan nan nan nan nan nan nan nan nan nan 1 2 2 2 1 nan nan nan nan nan nan nan nan nan nan nan nan nan nan nan nan nan nan nan nan nan
nan nan nan nan nan nan nan nan nan nan nan nan nan nan nan nan nan nan nan nan nan nan nan nan nan nan nan nan nan nan nan nan nan nan nan nan nan nan nan nan nan nan nan 0 1 1 2 1 0 0 nan nan nan nan nan nan nan nan nan nan nan nan nan nan nan nan nan nan nan
nan nan nan nan nan nan nan nan nan nan nan nan nan nan nan nan nan nan nan nan nan nan nan nan nan nan nan nan nan nan nan nan nan nan nan nan nan nan nan nan nan nan nan nan 0 0 1 2 0 0 nan nan nan nan nan nan nan nan nan nan nan nan nan nan nan nan nan nan nan
nan nan nan nan nan nan nan nan nan nan nan nan nan nan nan nan nan nan nan nan nan nan nan nan nan nan nan nan nan nan nan nan nan nan nan nan nan nan nan nan nan nan nan nan 0 0 1 1 0 0 nan nan nan nan nan nan nan nan nan nan nan nan nan nan nan nan nan nan nan